TimeCDT,TemperatureF,Dew PointF,Humidity,Sea Level PressureIn,VisibilityMPH,Wind Direction,Wind SpeedMPH,Gust SpeedMPH,PrecipitationIn,Events,Conditions,WindDirDegrees,DateUTC
12:15 AM,71.6,71.6,100,29.90,10.0,South,4.6,-,N/A,,Clear,170,2013-09-07 05:15:00
12:35 AM,71.6,71.6,100,29.90,10.0,South,5.8,-,N/A,,Clear,170,2013-09-07 05:35:00
12:55 AM,71.6,71.6,100,29.90,10.0,South,4.6,-,N/A,,Clear,170,2013-09-07 05:55:00
1:15 AM,71.6,71.6,100,29.90,10.0,Calm,Calm,-,N/A,,Clear,0,2013-09-07 06:15:00
1:35 AM,69.8,69.8,100,29.90,8.0,East,4.6,-,N/A,,Clear,80,2013-09-07 06:35:00
1:55 AM,69.8,69.8,100,29.90,9.0,ESE,4.6,-,N/A,,Clear,110,2013-09-07 06:55:00
2:15 AM,68.0,68.0,100,29.90,7.0,ENE,4.6,-,N/A,,Clear,60,2013-09-07 07:15:00
2:35 AM,68.0,68.0,100,29.90,6.0,East,4.6,-,N/A,,Clear,80,2013-09-07 07:35:00
2:55 AM,68.0,68.0,100,29.90,8.0,East,4.6,-,N/A,,Clear,80,2013-09-07 07:55:00
3:15 AM,68.0,68.0,100,29.90,6.0,ENE,3.5,-,N/A,,Clear,60,2013-09-07 08:15:00
3:35 AM,68.0,68.0,100,29.90,5.0,ENE,5.8,-,N/A,,Clear,60,2013-09-07 08:35:00
3:55 AM,66.2,66.2,100,29.90,5.0,ENE,5.8,-,N/A,,Clear,60,2013-09-07 08:55:00
4:15 AM,68.0,68.0,100,29.89,7.0,East,4.6,-,N/A,,Clear,100,2013-09-07 09:15:00
4:35 AM,68.0,68.0,100,29.88,7.0,East,5.8,-,N/A,,Clear,90,2013-09-07 09:35:00
4:55 AM,68.0,68.0,100,29.88,7.0,Calm,Calm,-,N/A,,Clear,0,2013-09-07 09:55:00
5:15 AM,69.8,69.8,100,29.88,10.0,SE,4.6,-,N/A,,Clear,130,2013-09-07 10:15:00
5:35 AM,68.0,68.0,100,29.88,9.0,ESE,5.8,-,N/A,,Clear,120,2013-09-07 10:35:00
5:55 AM,68.0,68.0,100,29.88,7.0,ESE,4.6,-,N/A,,Clear,120,2013-09-07 10:55:00
6:15 AM,68.0,68.0,100,29.89,6.0,ESE,4.6,-,N/A,,Clear,110,2013-09-07 11:15:00
6:35 AM,68.0,68.0,100,29.89,6.0,Calm,Calm,-,N/A,,Clear,0,2013-09-07 11:35:00
6:55 AM,66.2,66.2,100,29.91,4.0,Calm,Calm,-,N/A,,Clear,0,2013-09-07 11:55:00
7:15 AM,66.2,66.2,100,29.93,3.0,Calm,Calm,-,N/A,,Clear,0,2013-09-07 12:15:00
7:35 AM,68.0,68.0,100,29.92,3.0,ENE,4.6,-,N/A,,Clear,60,2013-09-07 12:35:00
7:55 AM,69.8,69.8,100,29.92,5.0,Calm,Calm,-,N/A,,Clear,0,2013-09-07 12:55:00
8:15 AM,71.6,71.6,100,29.91,6.0,NE,3.5,-,N/A,,Clear,50,2013-09-07 13:15:00
8:35 AM,71.6,71.6,100,29.91,6.0,NE,3.5,-,N/A,,Clear,50,2013-09-07 13:35:00
8:55 AM,73.4,73.4,100,29.91,8.0,NNE,6.9,-,N/A,,Clear,30,2013-09-07 13:55:00
9:15 AM,75.2,73.4,94,29.91,10.0,North,6.9,-,N/A,,Clear,10,2013-09-07 14:15:00
9:35 AM,77.0,73.4,89,29.92,10.0,North,10.4,-,N/A,,Clear,360,2013-09-07 14:35:00
9:55 AM,78.8,73.4,83,29.90,10.0,NNE,9.2,17.3,N/A,,Clear,20,2013-09-07 14:55:00
10:15 AM,77.0,73.4,89,29.90,10.0,NNE,8.1,18.4,N/A,,Clear,30,2013-09-07 15:15:00
10:35 AM,77.0,75.2,94,29.88,10.0,NE,9.2,16.1,N/A,,Partly Cloudy,50,2013-09-07 15:35:00
10:55 AM,78.8,75.2,89,29.88,10.0,NE,11.5,-,N/A,,Clear,40,2013-09-07 15:55:00
11:15 AM,82.4,75.2,79,29.94,10.0,WSW,9.2,-,N/A,,Clear,250,2013-09-07 16:15:00
11:35 AM,82.4,75.2,79,29.94,10.0,Calm,Calm,-,N/A,,Clear,0,2013-09-07 16:35:00
11:55 AM,82.4,73.4,74,29.91,10.0,ENE,11.5,-,N/A,,Clear,60,2013-09-07 16:55:00
12:15 PM,80.6,73.4,79,29.92,10.0,NNE,8.1,-,N/A,,Clear,30,2013-09-07 17:15:00
12:35 PM,82.4,73.4,74,29.93,10.0,ENE,4.6,11.5,N/A,,Clear,70,2013-09-07 17:35:00
12:55 PM,82.4,75.2,79,29.96,10.0,Calm,Calm,-,N/A,,Clear,0,2013-09-07 17:55:00
1:15 PM,82.4,77.0,84,29.97,10.0,WNW,3.5,-,N/A,,Clear,300,2013-09-07 18:15:00
1:35 PM,84.2,75.2,74,29.95,10.0,Calm,Calm,-,N/A,,Clear,0,2013-09-07 18:35:00
1:55 PM,84.2,73.4,70,29.95,10.0,NE,4.6,11.5,N/A,,Clear,50,2013-09-07 18:55:00
2:15 PM,86.0,73.4,66,29.93,10.0,NE,5.8,-,N/A,,Clear,50,2013-09-07 19:15:00
2:35 PM,86.0,73.4,66,29.92,10.0,NE,9.2,-,N/A,,Clear,50,2013-09-07 19:35:00
2:55 PM,86.0,75.2,70,29.92,10.0,NNE,12.7,-,N/A,,Clear,30,2013-09-07 19:55:00
3:15 PM,84.2,75.2,74,29.92,10.0,NNE,11.5,-,N/A,,Clear,20,2013-09-07 20:15:00
3:35 PM,86.0,75.2,70,29.93,10.0,NNE,11.5,-,N/A,,Clear,20,2013-09-07 20:35:00
3:55 PM,86.0,73.4,66,29.93,10.0,Variable,4.6,12.7,N/A,,Clear,0,2013-09-07 20:55:00
4:15 PM,86.0,73.4,66,29.93,10.0,North,8.1,-,N/A,,Clear,10,2013-09-07 21:15:00
4:35 PM,84.2,73.4,70,29.93,10.0,NNE,6.9,16.1,N/A,,Clear,30,2013-09-07 21:35:00
4:55 PM,84.2,73.4,70,29.93,10.0,NE,6.9,13.8,N/A,,Clear,40,2013-09-07 21:55:00
5:15 PM,86.0,73.4,66,29.93,10.0,NNE,9.2,-,N/A,,Clear,30,2013-09-07 22:15:00
5:35 PM,86.0,73.4,66,29.93,10.0,NNE,8.1,-,N/A,,Clear,30,2013-09-07 22:35:00
5:55 PM,86.0,75.2,70,29.94,10.0,NNE,8.1,-,N/A,,Clear,30,2013-09-07 22:55:00
6:15 PM,86.0,73.4,66,29.93,10.0,NE,11.5,-,N/A,,Clear,40,2013-09-07 23:15:00
6:35 PM,84.2,75.2,74,29.94,10.0,NE,6.9,-,N/A,,Clear,40,2013-09-07 23:35:00
6:55 PM,84.2,73.4,70,29.94,10.0,NNE,9.2,-,N/A,,Clear,30,2013-09-07 23:55:00
7:15 PM,80.6,73.4,79,29.94,10.0,NNE,5.8,-,N/A,,Clear,30,2013-09-08 00:15:00
7:35 PM,78.8,75.2,89,29.95,10.0,NE,5.8,-,N/A,,Clear,40,2013-09-08 00:35:00
7:55 PM,77.0,77.0,100,29.95,10.0,NE,4.6,-,N/A,,Clear,40,2013-09-08 00:55:00
8:15 PM,75.2,75.2,100,29.95,10.0,NE,4.6,-,N/A,,Clear,40,2013-09-08 01:15:00
8:35 PM,75.2,75.2,100,29.95,10.0,NE,4.6,-,N/A,,Clear,40,2013-09-08 01:35:00
8:55 PM,73.4,73.4,100,29.96,10.0,NE,4.6,-,N/A,,Clear,40,2013-09-08 01:55:00
9:15 PM,73.4,73.4,100,29.96,10.0,NE,6.9,-,N/A,,Clear,50,2013-09-08 02:15:00
9:35 PM,73.4,73.4,100,29.96,10.0,NE,5.8,-,N/A,,Clear,50,2013-09-08 02:35:00
9:55 PM,73.4,73.4,100,29.96,10.0,NE,5.8,-,N/A,,Clear,50,2013-09-08 02:55:00
10:15 PM,71.6,71.6,100,29.97,8.0,NNE,3.5,-,N/A,,Clear,30,2013-09-08 03:15:00
10:35 PM,71.6,71.6,100,29.97,9.0,North,4.6,-,N/A,,Scattered Clouds,350,2013-09-08 03:35:00
10:55 PM,71.6,71.6,100,29.97,8.0,NNE,4.6,-,N/A,,Mostly Cloudy,30,2013-09-08 03:55:00
11:15 PM,71.6,71.6,100,29.97,10.0,NE,5.8,-,N/A,,Scattered Clouds,40,2013-09-08 04:15:00
11:35 PM,71.6,71.6,100,29.97,8.0,ENE,4.6,-,N/A,,Clear,60,2013-09-08 04:35:00
11:55 PM,71.6,71.6,100,29.97,9.0,NE,5.8,-,N/A,,Clear,40,2013-09-08 04:55:00